GEFSMW_500_meanwind_072.txt.gz
Wind_Speed
28 27 28 29 29 29 30 30 31 32 33 34 34 35 36 37 38 39 39 38 38 37 36 34 34 33 31 30 28 28 28 27 27 26 25 25 25 25 24 23 22 21 20
26 26 26 26 26 27 27 27 28 28 29 30 30 32 33 34 35 36 37 38 38 37 37 36 35 34 34 32 30 30 29 28 28 27 27 26 26 27 25 24 24 24 23
24 24 24 24 25 25 25 25 25 25 25 26 26 28 29 30 31 32 34 35 36 36 36 36 36 35 34 33 32 32 32 30 29 29 28 28 27 28 27 26 26 26 25
23 23 23 23 23 23 22 22 22 22 21 22 23 24 25 26 27 28 30 32 33 34 35 36 36 36 35 35 34 33 33 32 31 30 30 30 30 30 30 29 27 27 26
22 22 22 21 21 20 19 19 19 19 18 18 19 20 21 22 24 25 27 29 31 32 34 35 35 36 36 36 35 34 34 34 33 32 31 31 30 30 32 31 30 29 27
21 21 21 21 20 19 19 18 18 17 16 16 16 16 16 18 19 21 22 25 27 29 31 33 34 35 36 36 36 36 36 35 34 33 33 33 31 30 32 33 32 31 29
20 20 21 21 20 19 19 18 17 16 16 15 14 14 13 13 14 16 18 20 22 25 28 30 32 33 34 35 36 37 38 37 36 35 34 34 33 33 32 32 33 34 32
19 20 20 20 20 19 19 18 17 17 16 15 14 13 12 11 11 12 13 16 18 20 22 25 29 31 33 35 35 36 37 38 37 36 36 35 34 34 33 33 33 34 34
19 20 20 21 20 20 19 19 18 18 16 15 14 13 12 11 9 8 8 10 12 16 18 21 24 28 30 33 34 35 35 36 36 35 35 35 34 34 33 33 33 34 34
20 20 21 21 21 20 20 20 19 19 18 17 16 15 13 12 10 8 6 6 8 10 13 17 20 23 25 28 32 33 34 34 35 36 36 35 34 33 32 32 32 33 34
21 21 22 22 22 21 20 20 20 20 19 18 17 16 15 13 11 10 7 5 5 7 9 12 15 18 21 24 27 28 29 31 33 33 33 32 31 31 31 31 31 32 33
21 22 22 22 23 22 22 21 21 20 20 19 18 17 16 15 13 11 9 7 6 6 7 8 11 14 17 20 23 25 27 28 29 30 30 30 29 29 30 30 30 30 31
21 22 22 23 23 23 23 22 22 21 21 20 20 19 17 16 15 13 11 9 7 6 5 5 6 9 12 15 18 20 23 24 25 26 27 28 28 28 28 29 29 29 30
20 21 21 22 23 23 23 23 23 23 22 21 20 20 19 17 16 14 13 12 10 7 5 4 4 5 7 9 13 15 18 21 22 23 24 25 26 27 27 27 27 27 28
19 20 21 21 22 23 24 23 23 23 23 22 21 20 19 18 17 16 15 13 11 9 6 5 3 3 4 6 8 12 14 16 18 19 21 22 23 24 25 25 24 24 25
19 20 21 21 22 22 23 23 23 23 23 23 22 21 20 19 18 17 16 14 13 10 8 6 4 2 3 4 6 9 11 14 15 16 18 19 20 21 21 20 20 20 21
18 19 20 21 21 22 23 23 23 23 23 23 23 22 21 21 19 18 17 16 14 12 10 8 6 4 3 2 3 7 9 11 12 14 16 17 17 17 17 18 18 18 19
18 19 19 20 21 21 22 23 23 23 24 24 24 24 23 22 20 19 18 17 16 14 12 10 8 6 4 2 0 3 5 8 9 11 13 14 15 15 15 16 15 16 17
17 18 18 19 20 20 21 22 23 23 23 24 24 24 24 23 22 21 20 19 18 16 14 12 11 9 7 5 3 2 2 5 7 8 10 11 12 12 13 14 14 14 15
15 16 17 18 18 19 20 21 21 22 22 23 23 24 24 24 23 22 21 21 20 19 17 15 14 12 10 8 5 3 3 4 5 7 8 10 10 10 11 12 12 12 13
14 15 16 17 18 18 19 19 20 21 21 22 22 23 23 23 23 22 21 21 20 19 19 18 16 15 13 11 9 7 6 5 5 6 7 9 9 9 9 10 10 10 11
14 14 15 15 16 17 17 18 19 20 20 21 21 22 22 22 22 22 21 21 21 20 19 18 17 16 15 13 11 10 8 8 7 8 8 9 8 8 8 9 9 9 9
13 13 14 14 15 16 16 17 17 18 19 19 20 20 21 21 21 21 21 21 20 20 20 19 18 16 15 14 13 11 10 9 9 9 10 10 10 9 9 9 9 9 9
12 13 13 13 14 15 15 16 16 17 17 18 18 19 19 20 20 20 21 20 20 20 20 19 18 17 16 15 15 13 12 11 10 10 10 10 10 9 8 8 8 9 9
13 13 13 13 13 14 14 14 15 15 15 16 16 17 17 17 18 18 19 19 19 18 18 19 18 18 16 15 15 14 13 12 12 11 11 11 10 10 10 9 8 8 8
14 14 13 13 13 13 13 13 13 13 14 14 14 14 15 15 15 15 16 16 17 17 17 17 17 17 16 15 14 14 13 13 12 12 11 10 10 9 9 8 8 8 8

GEFSMW_500_meanwind_078.txt.gz
Wind_Speed
24 24 23 23 23 24 24 25 25 26 26 27 28 29 30 31 32 34 35 36 38 39 41 42 41 41 38 36 35 34 33 31 29 28 26 28 27 25 24 23 22 22 20
22 22 22 22 23 23 23 23 24 24 24 24 24 25 27 28 29 30 32 34 36 38 39 42 42 41 40 39 38 36 35 32 31 30 28 27 28 27 26 25 24 24 23
20 20 21 22 22 22 22 22 22 22 21 21 21 22 23 24 25 27 29 31 33 35 37 38 41 42 42 41 40 39 37 36 34 33 31 29 28 29 29 28 27 26 25
19 19 21 22 22 22 22 21 20 20 20 19 19 20 20 20 21 23 25 26 28 31 34 36 37 40 41 42 42 41 39 38 37 35 33 31 30 30 29 29 28 28 28
19 20 21 21 22 22 21 21 20 20 19 19 18 18 18 18 19 19 21 23 25 27 30 33 35 37 39 41 42 41 40 39 39 37 35 34 33 31 31 30 29 29 30
19 20 21 21 22 22 22 21 20 20 19 18 18 17 16 16 16 16 17 19 21 23 25 28 31 33 36 38 40 40 41 40 40 39 38 37 36 34 33 32 31 31 31
19 21 22 22 23 22 22 21 21 20 20 19 18 17 17 15 14 14 14 15 17 19 21 24 26 29 32 35 38 39 40 41 42 41 40 39 38 37 35 34 33 32 32
20 22 22 23 23 23 23 22 21 20 20 20 19 18 17 16 14 12 12 13 14 16 18 21 23 26 29 32 35 37 38 40 42 43 42 40 39 38 37 36 36 35 34
21 22 22 23 23 24 24 23 22 21 20 21 21 20 19 17 14 12 11 10 11 13 15 18 20 23 26 28 32 34 36 37 39 42 42 41 40 39 39 38 37 37 35
20 21 22 23 23 24 24 23 23 22 21 21 21 20 19 18 16 14 11 9 9 10 11 14 17 20 23 26 28 30 32 34 36 38 39 40 39 39 39 40 38 37 36
20 21 21 22 23 24 24 24 23 23 22 22 22 21 20 19 17 15 12 10 9 8 8 10 13 16 19 22 25 27 29 31 33 34 36 37 38 38 37 37 36 36 36
20 21 21 22 23 24 24 24 23 23 23 23 23 22 21 20 18 16 14 11 10 8 8 8 10 12 15 18 21 23 25 28 30 32 33 34 36 37 36 35 34 35 35
20 21 22 22 23 24 24 24 24 24 24 24 24 24 23 22 20 18 15 13 11 9 8 8 8 9 10 14 17 20 22 24 26 28 30 32 33 34 34 35 35 35 35
20 21 21 22 23 23 24 24 25 24 24 25 24 24 24 23 21 19 17 15 13 10 9 8 7 6 7 9 13 16 19 21 23 25 28 29 30 31 32 32 33 33 33
20 20 21 22 23 23 24 24 25 25 25 25 25 25 25 24 22 21 19 17 14 12 10 9 7 5 4 6 9 12 14 17 19 22 24 25 27 27 28 29 30 30 29
19 20 20 21 22 23 23 24 25 25 25 25 26 26 26 25 23 22 20 18 16 14 12 11 9 6 4 4 5 8 10 12 15 18 20 22 23 24 24 24 26 26 27
18 19 19 20 21 22 23 24 24 25 25 25 25 26 26 26 24 23 21 20 18 17 14 12 11 9 6 3 2 4 7 10 11 14 16 18 20 21 22 22 23 24 24
17 18 18 19 20 21 22 23 24 24 25 24 25 25 25 25 25 24 22 21 19 18 17 15 13 11 9 6 2 1 4 6 8 10 12 14 15 17 19 19 19 20 21
16 17 17 18 19 20 21 22 23 24 24 24 24 24 25 25 24 24 23 22 21 19 18 17 15 13 11 8 6 3 1 2 5 8 10 12 13 13 14 15 15 16 17
16 16 17 17 18 19 20 21 22 22 23 23 24 24 24 24 24 23 23 22 21 20 19 18 17 15 13 11 8 5 3 1 3 5 7 9 11 12 13 13 13 13 13
16 16 17 17 18 18 18 19 20 21 22 22 23 23 23 23 23 23 22 22 21 20 20 19 18 17 15 13 11 8 6 4 3 4 6 7 8 9 10 11 11 11 12
16 16 16 17 17 18 18 18 19 20 20 21 21 22 22 22 22 22 22 22 21 20 19 19 19 18 16 15 13 10 8 6 5 4 4 5 6 7 8 9 10 10 10
16 16 17 17 17 18 18 18 19 19 19 20 20 20 20 21 21 21 21 21 21 20 19 18 18 17 16 15 14 12 10 8 7 5 5 4 6 7 7 8 8 8 8
18 18 18 18 18 18 18 18 18 19 19 19 19 19 19 19 19 19 20 20 20 19 18 17 17 17 16 15 14 13 12 10 9 8 7 6 6 6 6 7 7 7 8
20 20 19 19 19 19 19 19 19 19 19 18 18 18 18 18 17 17 17 18 18 18 17 16 16 16 15 15 14 13 12 11 10 9 8 7 6 6 6 6 6 7 7
22 22 22 21 21 21 20 20 20 19 19 19 18 18 17 17 17 16 15 15 15 15 15 14 14 14 13 13 13 12 11 10 9 8 8 7 7 6 6 6 6 6 6

GEFSMW_500_meanwind_084.txt.gz
Wind_Speed
19 19 20 20 20 21 21 21 22 22 21 21 22 23 23 24 26 28 30 32 33 36 37 38 39 41 42 41 40 39 38 37 35 33 30 31 31 29 28 27 27 27 25
18 19 19 19 20 20 21 21 20 20 19 19 19 19 20 21 22 24 27 29 30 32 34 36 37 39 41 42 42 41 39 39 37 35 33 31 32 31 30 29 28 28 27
17 18 19 20 20 21 21 21 20 19 18 18 18 18 18 19 20 21 23 25 27 30 32 34 35 37 39 41 42 42 40 40 39 37 36 33 32 33 32 32 31 30 29
17 18 19 20 21 21 21 21 21 19 18 18 17 18 18 18 18 19 20 22 24 26 28 31 33 35 37 39 40 41 41 41 41 40 39 36 34 34 33 33 33 32 31
18 18 19 20 21 22 22 21 20 19 19 18 18 18 18 17 17 16 17 18 20 23 25 28 30 32 33 36 38 39 41 42 42 42 41 39 38 36 34 34 34 33 32
18 19 19 20 21 22 22 21 20 20 20 20 19 19 18 17 16 16 15 16 18 20 21 24 26 28 31 33 35 37 39 41 42 42 42 42 39 38 36 35 34 34 34
18 19 19 20 21 22 23 22 21 21 21 21 21 20 19 18 17 15 13 13 14 16 18 20 22 24 27 30 32 33 36 39 40 41 42 41 40 39 38 37 36 36 35
18 19 19 20 21 22 22 22 22 23 23 23 22 21 20 19 18 15 13 11 11 12 14 16 18 20 23 26 28 30 32 35 38 40 41 41 40 40 40 38 36 36 36
18 19 19 20 21 22 23 23 23 24 24 23 23 22 21 20 18 16 14 12 10 10 10 12 15 16 19 22 25 27 29 32 34 37 39 40 40 40 41 39 37 36 36
18 19 19 20 22 22 23 23 23 24 24 25 24 23 22 21 20 17 15 12 10 8 8 9 11 13 16 19 22 24 26 28 31 33 36 38 39 39 40 40 38 38 37
18 19 20 20 22 23 23 24 24 25 25 25 25 24 23 22 21 19 16 13 11 10 8 7 9 11 13 16 19 21 23 26 28 30 33 36 37 38 38 39 39 39 38
18 18 19 20 22 23 24 24 24 25 25 26 26 25 24 22 21 19 17 15 13 12 10 8 8 9 11 14 17 19 21 23 25 28 30 33 35 37 37 38 38 38 38
17 18 19 20 21 23 24 24 25 25 26 26 26 25 25 23 21 20 19 17 15 14 12 10 8 7 8 11 14 16 19 21 23 25 27 30 33 34 35 35 36 36 36
16 17 18 19 21 22 23 24 24 25 26 26 26 25 25 24 22 21 20 18 17 15 13 11 10 8 6 8 10 13 16 18 21 23 24 26 28 31 32 33 33 35 35
16 16 17 19 20 21 23 23 24 25 25 26 26 26 25 24 23 22 21 20 19 17 15 13 11 10 7 6 7 10 13 15 18 20 22 23 24 27 28 30 31 32 33
15 16 17 18 19 21 22 23 24 24 24 25 25 26 25 25 24 23 22 21 20 19 16 15 13 11 9 6 6 7 10 12 14 17 19 21 22 23 25 28 28 29 30
15 15 16 17 19 20 21 22 23 23 24 24 24 25 25 25 24 24 23 23 21 20 19 17 14 13 10 8 5 4 7 9 11 13 16 18 19 20 21 24 25 25 26
14 15 16 17 18 19 20 21 22 23 23 24 24 24 24 24 24 23 23 23 22 21 20 19 17 14 12 9 6 4 2 5 7 10 13 15 17 18 19 20 23 23 23
14 15 16 17 17 18 19 20 21 22 23 23 24 24 24 23 23 23 23 23 23 22 21 20 19 17 14 11 8 6 3 1 4 7 9 11 13 15 17 18 19 20 21
15 15 16 17 18 18 19 19 20 21 22 22 23 23 23 23 22 22 22 23 23 23 21 20 20 18 15 12 10 8 6 4 1 2 6 8 10 13 14 16 17 18 19
16 16 17 18 18 19 19 19 20 20 21 21 22 22 22 21 21 21 21 22 22 22 22 21 20 18 17 14 12 10 8 6 4 1 2 5 7 9 12 13 14 15 16
17 17 18 19 19 19 20 20 20 20 20 21 21 21 21 20 20 19 20 21 21 21 21 20 19 19 17 15 13 11 9 8 6 3 1 3 5 7 9 10 11 13 14
18 19 19 19 20 20 20 20 20 20 20 20 20 20 20 20 19 18 19 19 19 20 20 19 19 18 17 16 14 12 9 7 6 5 2 1 4 6 8 8 9 11 12
20 20 20 20 20 20 20 20 20 20 20 20 20 20 20 19 19 18 18 18 18 18 18 18 17 17 16 15 14 12 10 8 7 5 3 1 2 4 6 8 8 9 10
21 21 21 21 21 21 21 21 21 21 21 21 21 20 20 20 19 19 18 18 17 17 17 16 16 16 15 14 13 12 10 8 6 5 3 2 1 2 4 6 7 8 9
23 23 23 24 24 24 23 23 22 22 22 22 21 21 21 20 20 19 19 18 18 17 17 16 15 15 14 13 12 11 9 8 7 5 4 2 1 2 3 5 6 8 9

GEFSMW_500_meanwind_090.txt.gz
Wind_Speed
18 19 20 20 21 21 22 22 22 22 21 20 20 19 20 20 21 21 22 23 24 26 28 29 30 32 33 33 34 34 34 34 34 32 32 31 31 30 29 29 28 27 26
18 19 20 20 20 21 22 22 22 21 21 20 19 19 19 20 20 19 20 20 21 23 25 27 28 30 31 32 32 34 34 34 33 33 32 32 32 31 31 30 30 30 28
18 19 20 20 20 21 22 22 22 22 21 20 20 20 20 19 19 18 18 18 19 20 22 23 25 27 29 30 31 32 33 34 35 34 33 33 34 33 33 32 31 31 30
17 18 18 19 20 21 22 23 22 22 22 21 21 21 20 20 18 17 17 17 17 18 20 21 23 25 27 28 29 31 32 33 34 35 34 34 33 34 33 33 32 32 32
17 17 18 19 20 21 22 23 23 23 23 22 22 22 21 20 19 17 16 15 16 17 18 19 21 22 24 26 27 29 30 31 33 33 34 35 35 34 33 33 33 33 33
16 17 18 19 20 22 23 23 23 23 23 23 23 22 21 21 20 18 16 15 15 15 16 17 18 20 22 24 26 27 29 30 32 33 33 34 35 35 34 33 34 34 34
16 17 18 19 21 22 23 23 23 23 24 24 24 23 22 21 20 18 16 14 13 13 13 14 15 17 19 21 24 26 27 29 30 32 33 34 34 34 34 34 34 35 35
16 17 18 19 21 22 23 24 24 24 24 25 24 24 23 22 21 20 17 14 13 12 11 12 13 15 17 18 20 23 25 26 27 29 31 33 34 34 35 35 35 35 35
15 16 17 19 21 22 24 24 24 25 25 25 25 24 23 23 22 21 18 16 14 13 11 11 11 12 14 15 17 19 22 24 25 27 28 31 33 34 35 36 35 35 34
15 16 17 18 20 22 23 24 24 25 25 25 25 25 24 23 23 22 20 18 16 14 12 11 10 9 10 13 15 16 18 21 23 24 26 28 31 32 33 35 35 35 34
14 16 17 18 20 21 22 23 24 25 26 26 26 25 24 24 23 22 21 19 17 15 13 11 10 9 9 10 12 13 15 17 19 22 24 26 27 30 31 32 33 34 35
14 15 16 18 19 20 22 23 24 25 26 26 26 25 25 24 23 23 22 20 19 17 15 13 11 10 9 9 10 11 13 15 17 19 22 24 26 28 29 31 32 32 34
14 15 16 17 19 20 21 22 23 25 25 26 26 26 25 24 24 24 23 21 20 19 17 15 13 11 10 9 9 10 11 13 15 17 19 21 24 25 27 29 30 30 31
13 15 16 17 19 20 21 22 23 24 25 25 25 25 25 24 24 23 23 23 22 20 18 17 15 14 12 10 9 9 9 10 12 14 15 17 20 22 23 26 27 29 30
13 15 16 17 18 19 20 21 23 23 24 24 25 25 24 24 24 24 24 24 23 21 20 18 17 16 13 11 10 9 8 8 9 11 13 14 17 19 21 23 25 26 27
14 15 16 17 18 19 20 21 22 23 23 24 24 24 24 24 24 24 24 24 24 23 21 20 19 18 16 13 10 9 7 6 7 8 10 12 14 16 18 20 21 23 25
14 15 16 17 18 19 20 21 21 22 22 22 23 23 24 24 24 23 23 24 24 24 23 21 20 19 18 14 11 9 8 7 6 5 7 9 11 14 17 18 19 21 23
15 16 16 17 18 19 20 20 21 21 22 21 21 22 23 23 23 23 23 23 23 23 23 23 21 20 19 16 13 11 9 8 6 4 5 6 8 10 13 15 17 19 20
15 16 17 17 18 19 20 20 20 20 21 21 21 21 22 22 22 22 23 23 23 22 22 22 22 21 20 18 15 12 10 9 8 6 4 5 6 8 10 13 15 17 19
16 17 18 18 19 19 19 20 20 20 20 21 21 21 21 21 21 22 22 22 22 22 21 21 21 21 20 18 16 13 11 10 9 7 5 4 5 7 8 10 12 15 16
18 18 18 19 19 19 19 20 20 20 20 20 21 21 21 21 21 21 21 21 21 21 21 21 20 20 20 18 16 15 12 11 10 9 7 6 6 7 8 9 10 12 13
19 19 19 20 20 20 20 20 20 21 21 21 21 21 21 21 21 21 21 20 20 20 20 20 20 20 19 18 17 16 14 12 11 10 9 7 7 7 7 8 9 10 12
20 20 21 21 21 21 21 21 21 21 21 22 22 22 21 21 21 21 21 20 20 20 19 19 19 19 18 18 17 17 15 13 12 11 10 8 7 7 7 7 8 9 10
21 22 22 22 22 22 22 23 23 23 23 23 23 23 22 22 22 22 21 21 21 20 20 19 18 18 17 17 17 16 16 14 13 12 11 9 8 7 6 6 6 8 9
23 23 23 24 24 24 24 24 24 25 25 25 25 24 24 23 23 23 22 22 21 21 20 20 19 18 17 17 16 16 15 15 14 13 12 11 9 8 7 7 7 8 9
25 25 25 26 26 26 26 26 26 26 26 26 26 25 25 25 25 24 23 23 23 22 22 21 20 20 19 18 17 16 16 15 14 13 13 12 11 9 8 8 8 8 9

GEFSMW_500_meanwind_096.txt.gz
Wind_Speed
15 17 17 18 19 19 20 21 21 21 21 21 20 19 18 17 16 16 16 17 17 18 20 22 24 26 28 30 31 32 33 33 32 32 32 32 32 31 29 30 29 29 28
16 17 18 18 19 20 21 22 22 22 21 20 20 19 18 17 16 16 15 15 15 16 17 19 21 23 25 27 29 30 32 32 32 32 32 32 32 32 31 31 31 32 31
15 16 17 18 19 20 21 22 22 22 21 21 20 20 19 18 17 17 16 15 14 14 15 16 18 20 22 24 27 28 30 30 31 32 31 32 32 32 33 32 31 32 32
14 15 16 17 19 20 21 22 23 23 22 22 21 21 20 19 18 17 17 15 14 12 13 14 15 18 20 22 24 26 27 28 29 31 32 32 32 32 33 33 32 32 33
13 15 16 17 19 20 21 22 23 23 23 22 22 21 20 20 19 18 17 16 14 12 12 12 13 14 17 19 22 24 26 28 29 30 31 31 32 32 33 33 34 33 33
12 14 16 17 18 20 21 23 23 24 24 23 23 22 21 21 20 19 18 16 15 13 11 11 12 12 14 16 19 21 23 25 28 29 30 31 31 32 32 33 34 33 33
12 13 15 17 18 19 21 23 23 24 24 24 23 23 22 22 21 20 19 17 16 14 12 10 10 10 11 13 15 18 20 23 25 28 28 29 30 31 32 33 34 35 35
11 13 14 16 18 19 21 22 23 24 24 24 24 23 23 22 22 21 20 18 17 15 12 10 9 8 10 11 14 15 18 21 23 25 26 28 29 30 32 33 34 35 35
11 12 14 15 17 19 20 21 23 23 24 24 24 24 23 23 22 21 21 20 18 16 14 11 9 7 7 9 11 13 16 18 21 23 25 26 28 29 31 32 34 34 35
10 12 13 15 16 18 19 20 22 23 23 24 24 24 24 23 22 21 21 21 19 18 16 13 10 8 6 6 8 10 12 15 18 20 22 24 26 28 29 31 33 34 34
9 11 13 14 16 17 19 20 21 22 23 24 24 24 23 22 22 22 21 21 20 19 17 15 12 9 7 6 7 8 9 12 15 17 19 21 23 24 26 28 31 33 34
9 11 13 14 16 17 18 19 20 22 23 23 23 24 23 22 22 22 21 21 20 19 18 16 14 12 9 7 7 7 7 9 11 13 16 18 21 22 24 26 28 30 31
9 11 13 14 16 17 18 19 20 21 22 22 23 23 23 23 22 22 22 21 21 20 18 17 15 14 11 8 7 6 6 7 8 10 13 15 18 19 21 23 25 27 29
9 11 12 14 15 17 18 19 19 20 21 22 22 22 22 22 22 22 21 21 21 20 19 17 16 14 13 10 8 7 5 5 6 7 9 11 14 16 18 20 21 24 26
9 11 12 14 15 17 18 18 19 20 21 21 21 21 22 22 22 22 21 21 21 21 20 19 17 15 13 11 9 8 6 5 4 5 6 9 12 14 16 18 19 22 24
10 11 13 14 15 17 17 18 19 20 20 21 21 21 21 21 21 21 21 21 21 21 20 20 18 17 15 14 11 10 8 6 5 5 5 7 9 12 14 15 17 20 22
11 12 13 14 15 17 18 18 19 19 20 20 21 21 21 21 21 21 21 21 21 20 20 20 19 18 16 14 12 11 10 7 6 5 5 6 8 10 11 13 15 17 19
12 13 14 15 16 17 18 18 19 19 20 20 21 21 21 21 21 21 20 20 20 20 19 19 18 18 17 15 14 12 11 9 7 6 5 5 6 8 10 12 13 15 17
13 14 15 16 17 17 18 19 19 20 20 20 21 21 21 21 21 21 20 20 20 20 19 18 18 17 17 16 14 13 12 10 9 8 7 5 5 6 8 10 12 14 17
15 15 16 16 17 18 18 19 20 20 20 20 21 21 20 20 21 21 21 20 20 19 19 18 18 17 17 16 15 14 13 12 10 9 8 7 6 6 7 9 10 12 14
16 16 16 17 18 18 19 20 21 21 21 21 21 21 21 21 21 21 21 21 20 19 19 18 18 17 16 16 15 14 13 12 11 10 9 8 7 7 7 7 9 10 12
17 17 17 18 19 19 20 21 21 22 22 22 22 22 22 22 22 21 21 21 20 20 20 19 18 17 17 16 15 14 14 13 12 11 11 10 9 8 8 7 8 9 10
18 18 19 19 20 21 21 22 23 23 23 23 23 23 23 23 22 22 21 21 21 20 20 19 19 18 17 16 15 15 14 13 13 12 12 11 11 10 9 9 9 10 11
19 20 20 21 21 22 22 23 24 24 24 24 24 24 24 23 23 22 22 22 21 21 20 20 19 19 18 18 17 16 15 15 14 14 13 12 12 11 10 10 10 10 11
21 22 22 23 23 23 24 25 25 25 25 26 26 25 25 24 24 23 23 23 23 22 21 21 20 19 19 19 18 18 17 17 16 16 15 15 14 13 12 12 12 12 12
24 24 24 24 25 25 26 26 26 26 27 27 27 26 26 25 25 24 24 24 24 23 23 22 21 20 20 19 19 19 19 19 18 18 18 17 17 16 15 15 14 14 14

GEFSMW_500_meanwind_102.txt.gz
Wind_Speed
6 8 10 13 14 16 18 20 21 21 21 22 22 22 21 19 18 17 16 15 15 15 15 16 17 19 21 23 25 27 30 31 31 31 31 30 30 30 30 30 29 30 30
6 8 11 13 15 17 19 20 21 21 22 22 23 22 21 20 19 18 16 15 15 15 15 15 16 17 18 20 22 24 27 30 31 31 32 32 31 30 30 30 30 30 30
6 8 11 13 15 17 18 19 21 22 22 23 23 23 22 22 21 19 17 16 15 14 14 14 14 15 16 18 20 22 24 27 29 30 31 31 32 31 30 31 31 31 32
6 8 10 13 15 16 18 19 21 22 23 23 23 23 23 22 21 20 18 17 15 14 14 13 13 13 14 15 17 19 21 24 26 28 29 29 30 30 31 31 32 32 32
6 8 10 12 14 16 17 19 20 22 23 23 24 24 24 23 21 20 19 18 16 14 13 12 12 12 13 13 15 17 19 20 22 25 27 28 29 29 29 30 31 33 33
5 7 9 11 13 15 17 19 20 22 23 23 24 24 24 23 22 21 20 19 17 15 14 12 11 10 11 11 12 14 17 18 20 22 24 27 28 28 28 29 30 32 33
5 7 9 11 13 15 17 18 20 21 23 23 23 24 24 23 23 22 21 20 19 17 15 13 11 10 9 9 10 12 14 16 18 20 22 24 26 28 28 29 29 31 32
5 7 9 11 13 15 16 18 19 21 23 23 24 23 23 23 23 23 22 21 20 18 17 14 12 10 8 7 8 9 11 14 16 18 20 22 24 26 27 27 29 30 31
5 7 9 11 13 14 16 18 19 21 22 23 23 23 23 23 23 23 22 21 20 19 18 15 14 11 8 6 7 7 8 10 13 16 18 21 22 24 26 27 27 29 29
5 7 9 11 12 14 16 17 19 20 21 22 23 23 23 23 23 23 23 22 21 20 18 16 14 13 10 7 6 6 7 9 10 13 15 18 20 23 24 25 26 27 29
5 7 9 11 12 14 15 17 18 19 21 21 22 23 23 23 23 23 23 22 21 20 19 17 15 13 11 8 6 6 6 7 9 10 12 15 17 20 21 23 24 26 28
5 7 9 11 12 14 15 17 18 19 20 21 22 22 22 22 23 23 23 22 21 20 19 17 15 14 12 10 8 6 6 6 7 8 10 12 15 16 18 20 22 24 26
6 7 9 10 12 13 15 16 18 19 20 20 21 21 21 22 22 22 22 22 21 20 19 18 16 14 13 11 9 8 7 6 6 6 8 10 12 14 17 19 21 21 23
7 8 9 10 12 14 15 16 17 18 19 20 20 21 21 21 21 22 21 21 21 20 19 18 16 15 14 13 11 10 8 7 6 6 7 9 10 11 14 17 19 20 21
8 8 10 11 12 14 15 16 17 18 19 19 20 20 21 21 21 21 20 20 20 20 19 18 17 16 14 13 12 11 10 8 7 5 6 7 8 10 11 14 17 18 19
9 9 10 11 13 14 15 15 16 17 18 19 19 19 20 20 20 20 20 20 20 20 19 18 17 16 15 14 13 12 11 9 8 7 6 6 7 9 11 12 14 15 17
10 10 11 12 13 14 14 15 15 16 17 18 18 19 20 20 20 19 19 19 19 19 19 18 17 16 15 14 13 13 11 10 9 8 7 7 7 8 10 11 12 14 16
11 11 12 13 13 14 14 15 15 16 17 18 18 19 19 19 19 19 19 19 19 19 18 17 16 16 15 14 13 13 12 11 10 9 9 8 7 7 9 10 11 13 15
13 13 13 13 14 14 15 15 16 16 17 18 18 19 19 19 19 19 19 19 19 18 18 17 16 15 15 14 14 13 12 12 11 10 10 9 8 8 8 9 10 11 13
15 14 14 14 15 15 15 16 16 17 17 18 18 19 19 19 19 19 19 19 18 18 18 17 16 15 15 14 14 14 13 13 12 11 11 10 9 9 9 9 10 10 12
16 16 16 16 16 16 16 16 17 17 18 18 19 19 19 19 19 19 19 18 18 18 18 17 16 15 15 14 14 14 14 13 13 12 12 11 11 10 10 10 10 10 11
18 18 18 17 17 17 17 18 18 18 18 19 20 20 20 19 19 19 19 18 18 18 18 17 17 16 15 15 14 14 14 13 13 13 12 12 12 12 11 10 10 11 12
20 20 20 19 19 19 19 19 19 19 19 20 20 21 20 20 20 20 19 19 19 18 18 18 18 17 16 16 15 15 14 14 14 14 13 13 12 12 12 12 12 11 12
22 22 22 21 21 21 21 21 20 20 21 21 21 21 21 21 20 20 20 20 20 19 19 19 19 18 17 17 16 16 15 15 15 15 14 14 14 14 14 14 14 14 13
24 24 24 24 23 23 23 23 22 22 22 22 22 22 22 22 21 21 21 21 21 21 20 20 20 19 19 18 18 18 17 16 16 16 16 16 15 16 16 16 16 15 15
27 27 26 26 26 25 25 25 24 24 24 23 23 23 23 23 23 23 23 23 23 22 22 22 21 21 21 21 20 20 20 19 19 18 18 18 18 18 18 18 18 18 18

GEFSMW_500_meanwind_108.txt.gz
Wind_Speed
4 4 5 6 7 8 10 11 13 14 16 18 19 19 18 18 17 17 16 15 14 12 12 12 12 13 15 16 18 20 22 25 27 28 29 30 30 30 29 29 30 30 28
3 4 5 6 7 8 10 11 13 15 16 18 19 19 19 19 18 18 17 16 13 12 11 11 11 12 13 14 16 18 20 22 25 27 28 29 31 31 31 31 30 30 29
4 4 5 6 7 8 10 12 13 15 17 18 19 19 19 19 18 18 17 16 14 12 11 10 10 10 11 12 14 15 17 20 23 26 27 28 31 32 32 31 31 30 30
4 4 5 5 7 8 10 12 14 15 16 18 19 19 20 20 19 19 18 17 15 13 11 9 9 9 9 10 12 14 16 18 21 23 25 26 29 32 32 32 31 31 31
3 4 5 6 7 8 10 12 13 15 16 17 18 19 20 20 20 19 18 17 16 14 12 10 8 8 8 9 10 12 14 16 18 21 23 25 27 29 31 31 30 31 31
4 4 5 6 7 9 10 12 13 15 16 17 18 19 19 20 20 19 19 18 16 15 12 10 9 8 7 7 8 9 11 13 16 18 21 23 25 26 28 30 30 30 31
4 5 5 6 7 9 10 12 13 14 16 17 18 18 19 19 20 20 19 18 17 15 13 11 9 8 7 6 6 8 9 11 13 16 19 20 22 24 26 28 29 30 30
5 5 6 6 7 9 10 11 13 14 16 17 17 18 18 19 19 20 19 19 17 16 15 12 10 8 7 6 6 6 8 10 12 14 16 18 19 22 23 25 27 28 29
6 6 6 6 7 8 10 11 13 14 15 16 17 17 18 18 19 19 19 19 18 16 15 13 11 9 7 6 5 5 6 8 10 12 14 15 17 19 21 23 25 26 28
7 7 6 6 7 8 10 11 12 13 14 15 16 17 18 18 18 18 18 18 18 16 15 14 12 10 8 7 6 4 4 6 8 10 12 14 15 17 19 21 23 25 27
8 7 7 7 7 8 10 11 12 13 14 15 16 16 17 17 18 18 18 18 17 16 16 15 13 11 9 8 7 4 3 4 5 7 9 11 13 15 17 19 22 23 25
9 8 7 7 8 9 10 11 12 12 13 14 15 16 16 17 17 17 17 17 17 16 15 15 13 12 10 9 7 6 3 3 4 6 7 9 11 12 14 17 19 21 22
10 9 8 8 8 9 10 11 11 12 13 14 14 15 16 16 16 16 17 17 17 16 15 14 14 13 11 10 8 6 5 3 4 5 6 8 9 10 12 15 16 18 20
11 10 9 9 9 9 10 10 11 12 13 13 14 15 15 16 16 16 16 16 16 15 15 14 13 13 12 11 10 8 6 4 4 4 5 7 8 10 11 13 15 16 18
12 11 10 10 9 9 10 10 11 12 12 13 14 14 15 15 15 15 15 15 15 15 14 13 13 12 12 11 10 9 8 6 4 4 5 6 8 9 10 12 14 15 17
13 12 12 11 11 10 10 11 11 11 12 13 13 14 15 15 15 15 15 15 15 15 14 13 13 12 12 11 10 10 9 7 6 4 4 5 7 9 10 11 13 14 16
14 13 13 12 12 12 11 11 11 12 12 12 13 14 15 15 14 14 15 15 14 14 14 13 13 13 12 11 10 9 9 8 8 6 5 5 6 7 9 10 11 12 14
14 15 14 14 13 13 13 12 12 12 12 12 13 14 15 15 14 14 14 14 14 14 14 13 13 12 12 11 10 9 9 9 8 7 6 6 6 7 8 9 11 12 13
16 16 15 15 15 15 14 14 13 13 13 13 13 14 14 15 15 14 13 13 13 13 13 13 13 12 12 11 11 10 9 9 9 8 8 8 7 7 8 9 10 12 13
17 17 17 16 16 16 16 15 15 14 14 14 14 14 14 14 14 14 14 13 13 13 13 13 13 13 12 12 11 11 11 10 10 9 9 9 8 8 8 9 10 11 12
19 19 19 18 18 18 17 17 16 16 16 15 15 15 15 15 15 15 14 14 14 13 13 13 13 13 13 13 13 12 12 12 12 11 10 10 10 10 10 10 11 12 12
21 21 21 20 20 20 19 19 19 18 17 17 17 16 16 16 15 15 15 15 15 15 14 14 14 14 14 14 14 13 13 13 13 12 11 11 11 11 11 11 12 12 13
23 23 23 23 22 22 22 21 21 20 20 19 19 18 18 17 17 16 16 16 16 16 16 16 16 16 15 15 15 15 15 14 14 14 13 13 13 13 13 13 14 14 14
26 25 25 25 25 24 24 24 23 22 22 22 21 20 20 19 19 18 18 18 18 17 17 17 17 17 17 17 17 17 16 16 16 16 15 15 15 15 15 15 15 15 16
28 28 28 27 27 27 26 26 25 25 24 24 23 23 22 21 21 20 20 19 19 19 19 19 19 19 19 19 19 19 19 18 18 18 17 17 17 18 18 18 18 18 18
31 30 30 29 29 29 28 28 27 27 26 26 25 25 24 24 23 23 22 22 21 21 21 21 21 21 21 21 21 21 21 20 20 20 20 20 20 20 20 20 20 21 21

GEFSMW_500_meanwind_114.txt.gz
Wind_Speed
6 5 6 6 7 9 10 12 14 15 17 18 19 20 20 21 20 20 20 19 19 18 16 15 14 13 13 12 13 14 15 17 19 21 23 24 25 26 25 26 28 28 28
7 6 5 6 7 9 10 12 14 15 16 18 18 19 20 21 20 20 20 20 19 18 17 15 13 12 11 11 11 12 13 15 17 19 21 23 24 25 25 26 27 28 28
7 6 6 6 7 9 11 12 14 15 16 18 18 19 20 20 20 20 19 19 19 18 17 14 13 11 10 9 10 11 11 13 15 17 19 21 22 24 25 26 27 28 28
7 6 6 7 8 9 11 12 14 15 16 17 18 19 20 20 20 20 20 19 19 18 16 15 13 12 10 9 9 10 11 11 13 15 17 19 21 22 23 25 25 27 28
7 7 7 7 8 9 11 12 13 15 16 17 18 19 19 20 20 20 20 19 19 18 16 15 13 12 10 8 8 9 10 11 12 14 16 17 20 21 22 23 25 26 27
8 8 8 8 8 9 11 12 13 14 16 17 18 19 19 19 20 20 20 19 18 18 17 15 13 12 10 9 8 8 9 10 11 12 14 16 18 20 22 22 23 25 27
8 8 8 8 8 9 10 12 13 14 15 16 17 18 19 19 20 20 20 19 18 18 17 15 13 12 10 9 8 7 7 9 9 10 11 14 16 18 21 22 22 24 25
9 8 8 8 9 9 10 11 13 14 15 16 17 18 18 19 19 20 20 20 19 18 17 15 14 12 10 9 8 7 7 7 8 9 10 12 14 16 18 19 21 22 24
9 9 9 9 9 9 10 12 13 14 15 16 17 18 18 18 19 19 20 20 19 19 17 15 14 12 11 10 8 7 6 6 7 8 9 11 12 14 16 18 20 21 22
10 10 9 9 9 9 10 11 13 13 14 15 17 17 17 18 18 19 19 19 19 18 17 16 14 13 12 11 9 8 6 6 6 7 8 10 11 13 14 15 17 19 20
11 11 10 9 9 9 10 11 13 13 14 15 16 17 17 17 18 18 19 19 18 18 17 16 14 13 12 11 10 8 7 6 6 6 8 9 11 12 13 13 15 16 18
12 11 11 10 10 10 10 11 13 13 14 15 16 16 16 17 17 18 18 18 18 18 17 16 15 14 13 12 11 9 7 6 5 6 7 8 10 11 11 12 13 14 15
12 12 12 11 11 11 11 12 13 13 14 15 15 16 16 16 16 17 17 18 17 17 17 17 16 15 13 13 12 10 8 6 6 6 6 7 8 9 10 11 12 13 14
14 13 13 13 12 12 12 12 13 13 14 14 15 16 16 16 16 16 16 17 17 17 16 16 16 15 14 13 12 11 9 7 7 6 5 5 6 7 9 10 11 12 14
15 15 14 14 14 14 14 13 13 14 14 14 15 15 16 16 16 15 16 15 16 16 16 16 16 15 14 13 12 11 10 9 8 6 5 5 6 7 8 10 11 12 13
16 16 15 15 15 16 15 15 15 14 14 14 15 15 15 15 15 15 15 15 15 15 15 15 15 15 14 13 12 11 10 10 9 8 6 6 6 7 9 10 11 12 13
17 17 17 16 16 17 17 17 16 15 15 15 15 15 15 15 15 15 15 15 14 14 15 15 15 15 14 14 13 12 11 10 10 9 8 7 7 8 9 10 11 12 13
18 18 18 18 18 18 18 18 17 17 16 16 16 15 15 15 15 15 15 15 15 14 14 14 14 14 14 14 13 13 12 12 11 11 10 9 9 8 9 10 11 12 13
20 20 20 20 19 19 19 19 19 18 18 17 17 16 16 16 16 16 16 15 15 15 14 14 14 14 14 14 14 13 13 12 12 12 11 11 10 10 9 10 11 12 13
22 22 22 22 21 21 21 21 21 20 19 19 19 18 17 17 17 17 16 16 16 15 15 15 14 14 14 14 14 14 14 14 13 13 12 12 11 10 10 10 11 12 13
25 25 24 24 24 24 23 23 23 22 21 21 20 20 19 19 18 18 18 18 17 17 16 16 16 15 15 15 15 15 15 15 15 14 14 13 13 12 12 12 12 12 13
27 27 27 26 26 26 26 25 25 24 24 23 23 22 21 21 20 20 20 19 19 18 18 17 17 17 17 17 16 16 16 16 16 16 15 15 15 14 14 14 13 14 14
29 29 29 29 28 28 28 27 27 26 26 25 25 24 23 23 22 22 21 21 20 20 19 19 19 18 18 18 18 18 18 18 18 18 17 16 16 16 16 16 15 15 15
31 31 31 31 30 30 30 30 29 29 29 28 27 27 26 25 25 24 23 23 23 22 22 21 21 20 20 19 19 19 19 19 19 19 19 18 18 17 17 17 17 17 18
34 33 33 33 32 32 32 32 32 32 31 30 30 29 28 28 27 26 26 25 25 24 24 24 23 22 22 21 21 21 21 21 20 20 20 20 20 20 19 19 19 20 20
37 36 35 35 35 35 34 34 34 34 33 33 32 32 31 30 29 29 28 28 27 27 26 26 25 25 24 24 23 23 22 22 22 22 22 22 21 21 22 22 22 22 22

GEFSMW_500_meanwind_120.txt.gz
Wind_Speed
3 3 3 4 5 5 6 8 9 11 12 14 15 16 17 18 19 19 19 19 19 18 18 17 16 14 13 12 11 11 12 14 16 18 21 22 23 24 25 27 27 28 28
3 3 4 5 5 5 7 8 9 11 12 14 15 16 17 18 19 19 19 19 19 19 18 17 16 14 12 10 10 10 10 12 15 16 19 21 22 22 24 25 26 28 29
3 3 4 5 5 6 7 8 9 11 12 13 15 16 17 18 18 19 19 19 19 19 18 17 16 14 12 10 9 8 9 11 12 15 17 20 22 23 23 24 24 25 27
3 4 5 5 5 6 7 8 9 11 12 13 15 16 17 18 18 19 19 19 19 19 18 18 16 14 12 10 8 7 7 9 11 13 15 18 20 22 23 24 24 24 25
4 4 4 5 6 6 7 8 9 11 12 13 14 15 16 17 18 18 19 19 19 19 18 17 16 14 12 10 8 6 6 8 9 11 14 16 18 20 22 23 23 24 24
4 4 5 5 6 6 7 8 9 10 11 12 14 15 16 17 17 18 18 19 19 18 18 17 16 14 12 11 8 6 6 7 7 9 11 13 16 18 20 22 23 24 24
4 4 5 6 6 7 7 8 9 10 11 12 13 15 15 16 17 17 18 18 18 19 18 17 15 14 12 11 9 7 5 5 6 7 9 11 14 16 18 20 21 22 23
4 5 6 6 7 7 7 8 9 10 11 12 13 15 15 16 16 16 17 17 18 18 18 17 15 14 13 11 9 7 5 4 5 6 8 9 12 14 17 18 20 21 22
6 6 7 7 7 7 7 8 9 10 11 12 13 14 15 15 16 16 16 17 17 17 17 17 16 14 12 11 10 8 6 4 4 5 7 8 10 12 15 17 18 20 21
7 7 8 8 8 8 8 8 9 10 11 12 13 14 14 15 15 15 16 16 17 17 17 17 16 14 13 11 10 9 6 4 3 4 5 7 9 11 13 16 17 19 21
8 8 8 9 9 9 9 9 9 10 11 11 13 14 14 14 14 14 15 15 16 16 16 16 16 15 14 12 10 9 7 5 4 3 5 6 8 10 12 15 16 18 19
9 9 9 10 10 10 10 10 10 11 11 12 13 14 14 14 14 14 14 14 15 15 15 15 15 15 14 12 11 9 8 6 4 3 4 5 7 9 10 12 14 16 18
10 10 10 10 11 11 11 11 12 12 12 12 13 13 14 14 14 13 13 13 14 14 14 14 15 14 13 13 11 9 8 6 5 4 3 4 6 8 9 10 12 14 16
10 11 12 12 12 12 12 12 13 13 13 13 13 13 14 14 14 13 13 13 13 13 13 13 14 14 13 12 12 10 8 7 6 5 4 3 4 6 8 9 11 13 15
12 13 13 13 13 13 13 14 14 14 14 14 14 14 14 14 14 13 12 12 12 12 12 13 13 13 12 12 11 11 9 8 7 5 4 4 4 4 6 8 10 12 14
14 14 15 15 15 15 15 15 15 15 15 15 15 14 14 14 14 13 13 12 12 12 12 12 12 12 12 11 11 10 10 9 7 6 5 5 5 5 6 7 9 11 12
16 17 17 17 17 17 17 17 17 17 17 17 17 16 15 15 14 14 13 13 13 12 12 12 12 12 11 11 11 10 9 9 8 8 7 6 5 6 7 8 10 11 12
18 18 19 19 19 19 19 19 19 19 19 18 18 18 17 17 16 15 15 14 14 13 13 12 12 12 12 11 11 10 10 9 9 8 8 7 7 7 7 8 10 11 12
20 21 21 22 22 22 21 21 21 21 20 20 20 20 19 19 18 17 16 15 15 15 14 14 13 13 13 12 11 11 11 10 10 9 9 8 8 8 8 8 9 11 12
23 23 23 23 24 24 24 23 23 23 22 22 22 22 22 21 20 19 18 18 17 16 16 15 15 14 14 14 13 12 12 12 11 11 11 10 10 9 9 9 9 10 12
26 26 26 26 26 26 26 26 25 25 25 25 24 24 24 24 23 22 21 20 20 19 18 17 17 16 16 15 15 14 14 13 13 13 12 12 12 11 11 11 11 11 12
28 28 28 28 28 28 28 28 28 28 27 27 27 26 26 26 25 25 24 23 22 21 20 20 19 19 18 17 17 17 16 15 15 15 14 14 14 13 13 12 12 12 13
30 30 30 31 30 31 31 31 30 31 30 29 29 28 28 28 28 27 26 26 25 24 23 22 21 21 20 19 19 18 18 18 17 17 16 16 15 15 14 14 14 14 15
33 33 32 32 32 32 33 33 33 33 33 32 31 31 31 30 30 29 29 28 28 27 26 25 24 23 22 22 21 20 20 19 19 19 18 17 17 16 16 16 16 16 16
36 35 35 35 35 35 35 35 35 35 34 34 34 33 33 32 32 32 31 30 30 29 28 27 26 25 24 24 23 22 22 21 21 20 20 20 19 18 18 18 18 18 19
39 39 39 39 38 38 37 37 37 37 37 36 36 36 35 35 34 34 33 33 32 32 31 30 29 28 27 26 25 24 24 23 23 22 22 21 21 21 21 21 21 21 21

GEFSMW_500_meanwind_126.txt.gz
Wind_Speed
6 6 5 5 4 4 5 5 6 7 8 9 10 11 12 14 15 16 17 17 17 17 17 16 16 16 15 14 13 12 12 12 12 14 15 17 19 21 22 22 23 25 26
6 6 5 5 4 4 5 5 6 7 8 9 10 11 13 14 15 17 17 18 17 17 17 17 16 16 15 14 12 11 10 10 11 12 13 15 17 19 22 23 23 23 25
5 5 5 4 5 5 5 5 6 7 8 9 10 11 13 14 15 16 17 18 18 17 17 17 16 16 15 14 12 10 9 9 9 11 12 14 16 17 19 21 22 23 24
5 5 4 4 5 5 5 6 6 7 8 9 10 12 13 14 15 16 17 18 18 17 17 17 16 16 15 14 12 10 9 8 8 10 11 13 14 16 18 20 21 22 23
5 4 4 4 4 5 5 6 6 7 8 9 10 12 13 14 15 16 17 17 17 17 17 17 16 15 15 14 12 11 9 8 8 9 10 11 13 15 17 19 21 21 22
4 4 4 4 5 5 5 6 6 7 8 9 10 12 13 14 15 15 16 17 17 17 17 17 16 16 15 14 13 11 9 7 6 7 9 10 12 14 16 18 20 20 21
5 4 5 5 6 6 6 6 7 7 8 9 10 12 13 14 15 15 16 16 16 17 17 17 17 16 15 14 13 11 9 7 6 6 8 9 11 13 15 16 19 20 20
6 6 6 6 7 7 6 7 7 8 8 9 10 12 13 14 14 15 15 15 15 16 16 16 16 16 15 14 13 11 10 7 5 5 7 8 9 11 13 15 17 19 19
6 6 7 7 7 7 7 7 8 8 9 10 11 12 13 13 14 14 15 15 15 15 16 16 16 15 15 14 13 12 10 7 5 4 5 7 8 10 11 13 15 17 18
5 7 8 7 8 8 8 9 9 9 10 10 11 12 13 13 14 14 14 14 14 14 15 15 16 15 15 14 13 12 10 8 6 4 4 6 7 8 10 11 13 16 17
6 7 7 8 9 9 9 10 10 10 10 11 11 12 13 13 13 13 14 14 14 14 14 15 15 15 14 14 13 11 10 8 7 5 4 5 6 8 9 10 12 14 15
7 8 9 10 10 10 11 11 11 11 11 11 12 12 13 13 13 13 13 14 14 14 14 14 14 14 14 13 13 11 10 8 7 5 4 3 5 7 8 9 11 13 14
9 10 10 11 11 12 12 12 12 12 12 12 12 13 13 14 14 14 14 14 14 14 14 14 14 14 13 13 12 11 10 9 7 6 4 3 4 6 7 8 10 12 14
11 12 12 12 13 13 13 13 13 13 13 14 14 14 14 15 14 14 14 14 14 14 14 14 14 13 13 12 12 11 9 8 7 6 5 5 4 6 7 8 9 11 13
13 14 14 14 14 15 15 15 14 14 15 15 15 15 15 16 16 15 15 15 15 15 14 14 14 13 13 12 11 10 10 9 8 7 6 6 6 6 7 8 9 11 13
14 15 15 16 16 16 16 16 16 16 17 17 17 17 17 17 17 17 16 16 16 16 15 15 14 14 13 12 12 11 10 9 9 8 7 7 7 7 8 8 9 11 12
16 16 17 17 18 18 18 18 18 18 19 19 19 19 19 19 18 18 18 18 18 17 17 16 15 15 14 13 12 12 11 11 10 9 8 8 8 9 9 9 10 12 13
18 18 19 20 20 20 20 20 20 21 21 21 21 22 22 21 21 20 20 20 20 19 19 18 17 16 15 15 14 13 13 12 11 11 10 9 9 9 10 10 11 12 13
21 21 22 22 23 23 23 23 23 23 23 23 23 23 23 23 23 23 22 22 21 21 21 20 19 18 18 17 16 15 15 14 13 13 12 11 11 11 11 11 12 13 14
24 24 25 25 25 25 26 25 25 25 25 26 25 26 26 26 26 25 25 24 24 23 23 22 21 21 20 19 19 18 17 16 15 14 14 14 13 13 13 13 13 14 15
26 27 27 28 28 28 28 28 28 28 28 28 28 28 29 29 28 28 27 27 27 26 25 25 24 23 22 22 21 20 20 19 18 17 17 16 16 15 15 15 15 15 16
29 29 30 30 30 31 31 31 32 32 31 31 31 31 31 31 31 31 30 30 30 29 28 27 27 26 25 24 24 23 22 21 20 19 19 18 18 18 17 17 17 17 17
32 33 33 33 33 33 34 35 35 35 34 34 33 33 32 32 33 33 33 33 32 32 31 30 29 28 28 28 27 26 25 24 23 22 21 20 20 20 19 19 18 18 19
35 36 36 36 36 36 36 37 37 37 37 36 36 35 35 35 35 35 36 35 35 34 34 33 32 31 31 30 30 29 28 27 26 24 23 23 22 22 22 21 21 20 20
39 39 39 39 39 39 39 39 40 40 40 39 39 38 38 39 38 38 38 38 38 37 37 36 35 34 33 32 32 31 30 29 28 27 26 26 25 25 24 24 23 23 22
42 42 42 42 43 42 42 42 43 43 43 43 42 42 42 42 42 41 41 41 40 40 40 39 38 37 36 36 35 34 33 32 31 30 29 28 27 26 26 25 25 24 24

GEFSMW_500_meanwind_132.txt.gz
Wind_Speed
7 7 7 7 7 7 6 6 6 7 7 7 8 9 10 11 12 13 14 15 15 15 16 16 15 15 15 14 14 13 12 11 12 13 14 15 16 18 20 21 22 24 25
7 7 7 7 7 7 7 7 7 7 7 7 8 9 10 11 12 13 14 14 15 16 16 16 16 15 15 15 14 13 11 11 11 11 12 14 15 17 20 21 22 23 24
7 7 7 7 7 7 7 7 7 7 7 7 8 9 10 11 12 13 14 14 15 15 16 16 16 16 15 15 14 13 11 10 9 10 11 12 14 16 18 20 22 23 24
7 7 6 7 7 7 7 7 7 7 7 8 9 10 10 11 12 13 14 14 15 15 16 16 16 16 16 15 14 13 11 9 8 8 9 10 12 14 16 19 22 23 24
7 7 6 6 6 7 7 7 7 7 8 8 9 10 11 11 12 13 13 14 15 15 15 16 16 16 16 15 14 14 12 9 8 7 8 9 11 12 14 17 20 22 23
7 7 6 6 7 7 7 7 7 8 8 9 9 10 11 11 12 13 13 13 14 15 15 16 16 16 16 15 15 14 13 10 8 6 6 7 9 12 14 15 17 19 21
7 6 6 6 7 7 7 7 7 8 8 9 9 10 10 11 12 12 13 13 14 15 15 16 16 16 16 15 15 14 13 11 8 6 5 6 8 10 12 14 15 17 19
6 6 6 6 7 7 7 7 7 8 8 9 9 10 10 11 12 12 13 13 14 15 15 15 16 16 16 15 15 14 13 11 8 6 5 6 7 9 11 13 14 16 18
5 6 6 6 7 7 8 8 8 9 9 9 10 10 10 11 11 12 13 13 14 15 15 15 16 16 16 16 15 14 12 11 9 6 5 5 6 8 9 11 13 15 17
5 6 6 6 7 8 8 9 9 10 10 10 11 11 11 12 12 12 13 13 14 14 15 15 15 16 16 16 15 14 12 11 9 7 5 4 5 7 8 10 12 13 15
6 6 6 7 7 8 8 9 10 11 11 11 11 11 12 12 13 13 13 14 14 15 15 15 15 15 16 16 15 14 12 11 10 8 6 5 4 6 7 9 11 12 13
6 7 8 8 8 9 9 10 10 11 11 12 12 12 13 13 14 14 14 14 15 15 15 15 16 16 16 15 15 14 13 11 9 8 7 5 5 5 6 8 10 12 13
6 8 8 9 9 10 10 11 11 12 12 13 13 13 14 14 14 15 15 15 15 16 16 16 16 16 15 15 15 14 13 11 10 9 7 6 6 6 7 8 10 11 13
7 8 9 10 10 11 12 12 12 13 13 14 14 15 15 15 16 16 16 16 16 16 16 16 16 16 16 15 15 14 13 12 11 10 8 7 7 7 8 8 9 11 12
9 10 10 11 11 12 13 13 14 14 15 15 16 16 16 17 17 17 17 17 17 17 17 17 17 17 17 16 15 14 14 13 12 11 10 10 9 9 10 10 11 11 12
11 11 12 12 13 13 14 14 15 16 16 17 17 18 18 18 19 19 19 19 19 19 18 18 18 18 18 17 16 16 15 14 13 12 12 11 11 10 11 11 12 13 14
12 13 13 14 15 15 15 16 17 17 18 18 19 19 20 20 20 21 21 21 21 21 20 20 19 19 19 19 18 18 17 16 15 15 14 13 13 12 12 13 13 13 15
14 15 16 16 17 17 18 19 19 20 20 20 21 21 22 22 23 23 23 23 23 23 23 22 22 21 21 21 20 20 19 18 17 17 16 16 15 15 15 15 15 15 16
17 18 18 19 19 20 20 21 21 22 22 23 23 24 24 25 25 25 26 26 26 26 26 25 25 24 23 23 23 22 22 21 20 19 19 18 18 18 18 17 17 17 18
19 20 21 21 22 22 23 23 24 24 25 25 26 26 27 28 28 29 29 29 29 29 28 28 28 28 27 26 26 25 25 24 24 23 22 21 21 20 20 20 20 20 20
21 22 23 23 24 24 25 26 26 27 28 28 29 29 30 31 31 32 32 32 32 32 31 31 30 30 30 30 29 28 28 27 27 26 25 24 24 23 23 22 22 22 22
24 25 25 26 27 27 28 29 29 30 30 31 32 33 33 34 34 34 34 35 35 34 34 34 34 33 33 33 32 32 31 30 30 29 28 27 26 26 25 25 24 24 24
27 28 28 29 30 30 31 32 32 33 34 35 36 36 37 37 38 38 37 37 37 37 38 38 37 37 36 36 35 35 34 34 33 32 31 31 30 29 28 27 27 26 26
30 31 32 32 33 34 35 36 36 37 37 38 38 39 39 40 40 40 40 41 41 41 41 40 40 40 39 38 37 37 37 36 35 34 34 33 32 32 31 29 29 28 28
34 35 35 36 37 38 39 39 40 40 40 41 41 42 42 43 43 44 44 44 44 44 43 43 42 42 41 40 39 39 38 38 38 37 36 35 34 34 33 32 31 30 29
37 38 39 40 41 42 42 43 43 43 44 45 45 46 46 46 46 47 47 46 46 46 45 44 44 44 43 42 41 41 40 40 40 40 38 37 36 35 35 34 33 33 32